DLH320 EDDF-LIEO

Flight info

Callsign DLH320
Flight time 1h 37m
Altitude 27000
Route ANEKI2L/18 ANEKI Y163 NATOR/N0437F370 DCT TRA DCT RIPUS DCT GERSA DCT SOSON DCT ODINA DCT KEMMI DCT DEVOX DCT ANAKI DCT TORTU DCT OKROK DCT AJO A9 CORSI
Aircraft A320/M-SDE2E3FGIJ1LORWXYZ/HB1

Departure

Time 2026-05-05 11:22
Airport Frankfurt Main Airport (EDDF)

Arrival

Time 2026-05-05 13:00
Airport Olbia Costa Smeralda Airport (LIEO)
Time Latitude Longitude Altitude Speed Heading
2026-05-05 10:48 50.04978 8.59151 364 ft 0 kts 160°
2026-05-05 11:06 50.04980 8.59150 362 ft 2 kts 160°
2026-05-05 11:06 50.05005 8.59136 364 ft 4 kts 160°
2026-05-05 11:06 50.05024 8.59126 360 ft 4 kts 186°
2026-05-05 11:07 50.05041 8.59144 360 ft 4 kts 248°
2026-05-05 11:07 50.05048 8.59170 363 ft 0 kts 250°
2026-05-05 11:12 50.05044 8.59155 366 ft 4 kts 250°
2026-05-05 11:12 50.05028 8.59092 362 ft 8 kts 250°
2026-05-05 11:12 50.05007 8.59003 360 ft 10 kts 250°
2026-05-05 11:12 50.04982 8.58897 361 ft 11 kts 250°
2026-05-05 11:13 50.04952 8.58771 364 ft 13 kts 250°
2026-05-05 11:13 50.04918 8.58629 360 ft 15 kts 249°
2026-05-05 11:13 50.04881 8.58466 362 ft 17 kts 251°
2026-05-05 11:13 50.04834 8.58275 361 ft 20 kts 249°
2026-05-05 11:14 50.04782 8.58061 360 ft 21 kts 250°
2026-05-05 11:14 50.04706 8.57887 362 ft 20 kts 233°
2026-05-05 11:14 50.04652 8.57667 363 ft 23 kts 249°
2026-05-05 11:14 50.04598 8.57445 363 ft 22 kts 251°
2026-05-05 11:15 50.04542 8.57212 364 ft 24 kts 249°
2026-05-05 11:15 50.04486 8.56974 358 ft 23 kts 250°
2026-05-05 11:15 50.04428 8.56731 361 ft 25 kts 249°
2026-05-05 11:15 50.04363 8.56457 361 ft 28 kts 250°
2026-05-05 11:16 50.04293 8.56168 360 ft 29 kts 249°
2026-05-05 11:16 50.04226 8.55884 362 ft 27 kts 250°
2026-05-05 11:16 50.04166 8.55636 360 ft 24 kts 250°
2026-05-05 11:16 50.04115 8.55424 356 ft 15 kts 249°
2026-05-05 11:17 50.04079 8.55271 360 ft 16 kts 250°
2026-05-05 11:17 50.04039 8.55104 354 ft 18 kts 250°
2026-05-05 11:17 50.03992 8.54908 358 ft 21 kts 250°
2026-05-05 11:17 50.03936 8.54668 356 ft 25 kts 248°
2026-05-05 11:18 50.03878 8.54433 351 ft 25 kts 250°
2026-05-05 11:18 50.03794 8.54201 350 ft 24 kts 248°
2026-05-05 11:18 50.03736 8.53958 350 ft 23 kts 250°
2026-05-05 11:18 50.03677 8.53714 350 ft 25 kts 250°
2026-05-05 11:19 50.03610 8.53449 338 ft 28 kts 250°
2026-05-05 11:19 50.03556 8.53219 337 ft 21 kts 250°
2026-05-05 11:19 50.03502 8.52995 336 ft 22 kts 249°
2026-05-05 11:19 50.03450 8.52801 335 ft 10 kts 246°
2026-05-05 11:20 50.03432 8.52726 331 ft 0 kts 249°
2026-05-05 11:20 50.03427 8.52708 332 ft 8 kts 249°
2026-05-05 11:21 50.03356 8.52595 334 ft 14 kts 181°
2026-05-05 11:21 50.03351 8.52595 335 ft 0 kts 180°
2026-05-05 11:21 50.03349 8.52595 335 ft 2 kts 180°
2026-05-05 11:21 50.03133 8.52597 336 ft 70 kts 179°
2026-05-05 11:22 50.02419 8.52604 334 ft 133 kts 179°
2026-05-05 11:22 50.01348 8.52628 508 ft 163 kts 178°
2026-05-05 11:22 50.00252 8.52722 1352 ft 158 kts 177°
2026-05-05 11:22 49.99074 8.52798 1777 ft 180 kts 178°
2026-05-05 11:23 49.97738 8.52872 2163 ft 203 kts 178°
2026-05-05 11:23 49.96265 8.52955 2530 ft 225 kts 178°
2026-05-05 11:23 49.94684 8.53048 3371 ft 229 kts 178°
2026-05-05 11:23 49.93087 8.53148 4306 ft 230 kts 178°
2026-05-05 11:24 49.91479 8.53256 5235 ft 232 kts 178°
2026-05-05 11:24 49.89864 8.53365 6160 ft 234 kts 178°
2026-05-05 11:24 49.88228 8.53475 7040 ft 236 kts 178°
2026-05-05 11:24 49.86572 8.53583 7929 ft 239 kts 178°
2026-05-05 11:25 49.84905 8.53692 8808 ft 242 kts 178°
2026-05-05 11:25 49.83209 8.53805 9699 ft 245 kts 177°
2026-05-05 11:25 49.81492 8.53920 10524 ft 248 kts 177°
2026-05-05 11:25 49.79759 8.54035 11344 ft 251 kts 178°
2026-05-05 11:26 49.77997 8.54118 12164 ft 254 kts 182°
2026-05-05 11:26 49.76176 8.53916 12533 ft 277 kts 185°
2026-05-05 11:26 49.74166 8.53653 12777 ft 302 kts 185°
2026-05-05 11:26 49.71978 8.53354 12852 ft 324 kts 185°
2026-05-05 11:27 49.69711 8.53043 12860 ft 329 kts 185°
2026-05-05 11:27 49.67419 8.52730 12866 ft 331 kts 185°
2026-05-05 11:27 49.65140 8.52424 13507 ft 334 kts 185°
2026-05-05 11:27 49.62817 8.52114 14284 ft 335 kts 185°
2026-05-05 11:28 49.60482 8.51806 14998 ft 338 kts 185°
2026-05-05 11:28 49.58132 8.51501 15701 ft 340 kts 185°
2026-05-05 11:28 49.55766 8.51192 16397 ft 343 kts 185°
2026-05-05 11:28 49.53381 8.50877 17091 ft 345 kts 185°
2026-05-05 11:29 49.50975 8.50557 17778 ft 348 kts 185°
2026-05-05 11:29 49.48548 8.50236 18415 ft 350 kts 185°
2026-05-05 11:29 49.46106 8.49915 18988 ft 353 kts 185°
2026-05-05 11:29 49.43641 8.49595 19552 ft 357 kts 185°
2026-05-05 11:30 49.41184 8.49274 20123 ft 359 kts 185°
2026-05-05 11:30 49.38679 8.48943 20691 ft 362 kts 185°
2026-05-05 11:30 49.36159 8.48614 21241 ft 365 kts 185°
2026-05-05 11:30 49.33620 8.48289 21781 ft 368 kts 185°
2026-05-05 11:31 49.31049 8.47958 22305 ft 371 kts 185°
2026-05-05 11:31 49.28466 8.47623 22824 ft 374 kts 185°
2026-05-05 11:31 49.25896 8.47290 23331 ft 377 kts 185°
2026-05-05 11:31 49.23264 8.46948 23776 ft 379 kts 185°
2026-05-05 11:32 49.20622 8.46601 24234 ft 381 kts 185°
2026-05-05 11:32 49.18009 8.46259 24722 ft 381 kts 185°
2026-05-05 11:32 49.15360 8.45916 25186 ft 382 kts 185°
2026-05-05 11:32 49.12696 8.45574 25639 ft 383 kts 185°
2026-05-05 11:33 49.10033 8.45232 26077 ft 385 kts 185°
2026-05-05 11:33 49.07358 8.44887 26508 ft 386 kts 185°
2026-05-05 11:33 49.04733 8.44208 26914 ft 387 kts 192°
2026-05-05 11:33 49.02098 8.43284 27341 ft 389 kts 192°
2026-05-05 11:34 48.99451 8.42359 27756 ft 390 kts 192°
2026-05-05 11:34 48.96790 8.41429 28157 ft 392 kts 192°
2026-05-05 11:34 48.94118 8.40494 28564 ft 394 kts 192°
2026-05-05 11:34 48.91443 8.39559 28975 ft 395 kts 192°
2026-05-05 11:35 48.88751 8.38622 29387 ft 397 kts 192°
2026-05-05 11:35 48.86079 8.37694 29777 ft 399 kts 192°
2026-05-05 11:35 48.83362 8.36755 30127 ft 400 kts 192°
2026-05-05 11:35 48.80640 8.35811 30453 ft 402 kts 192°
2026-05-05 11:36 48.77911 8.34861 30774 ft 403 kts 192°
2026-05-05 11:36 48.75173 8.33881 31047 ft 405 kts 192°
2026-05-05 11:36 48.72421 8.32874 31329 ft 406 kts 192°
2026-05-05 11:36 48.69678 8.31863 31701 ft 405 kts 192°
2026-05-05 11:37 48.66971 8.30865 32118 ft 403 kts 192°
2026-05-05 11:37 48.64250 8.29867 32544 ft 401 kts 192°
2026-05-05 11:37 48.61537 8.28876 32980 ft 399 kts 192°
2026-05-05 11:37 48.58846 8.27896 33401 ft 397 kts 192°
2026-05-05 11:38 48.56159 8.26918 33856 ft 395 kts 192°
2026-05-05 11:38 48.53495 8.25950 34210 ft 394 kts 192°
2026-05-05 11:38 48.50816 8.25067 34470 ft 394 kts 187°
2026-05-05 11:38 48.48111 8.24805 34702 ft 395 kts 179°
2026-05-05 11:39 48.45377 8.25239 34950 ft 396 kts 172°
2026-05-05 11:39 48.42653 8.25912 35161 ft 397 kts 172°
2026-05-05 11:39 48.39915 8.26586 35394 ft 398 kts 172°
2026-05-05 11:39 48.37171 8.27257 35619 ft 399 kts 172°
2026-05-05 11:40 48.34424 8.27922 35805 ft 401 kts 172°
2026-05-05 11:40 48.31655 8.28592 35986 ft 403 kts 172°
2026-05-05 11:40 48.28880 8.29265 36191 ft 404 kts 172°
2026-05-05 11:40 48.26099 8.29938 36390 ft 405 kts 172°
2026-05-05 11:41 48.23341 8.30599 36601 ft 406 kts 173°
2026-05-05 11:41 48.20550 8.31264 36814 ft 407 kts 173°
2026-05-05 11:41 48.17752 8.31932 36875 ft 407 kts 173°
2026-05-05 11:42 48.12170 8.33279 36880 ft 406 kts 173°
2026-05-05 11:42 48.06582 8.34643 36881 ft 407 kts 172°
2026-05-05 11:43 48.00987 8.36004 36880 ft 407 kts 173°
2026-05-05 11:43 47.95431 8.37343 36882 ft 407 kts 173°
2026-05-05 11:44 47.89834 8.38688 36885 ft 407 kts 173°
2026-05-05 11:44 47.84227 8.40045 36885 ft 408 kts 173°
2026-05-05 11:45 47.78616 8.41393 36887 ft 408 kts 173°
2026-05-05 11:45 47.73006 8.42728 36879 ft 408 kts 173°
2026-05-05 11:46 47.67389 8.44038 36869 ft 407 kts 175°
2026-05-05 11:46 47.61795 8.44921 36889 ft 406 kts 177°
2026-05-05 11:47 47.56133 8.45629 36895 ft 407 kts 177°
2026-05-05 11:47 47.50499 8.46389 36899 ft 406 kts 177°
2026-05-05 11:48 47.42068 8.47643 36899 ft 406 kts 176°
2026-05-05 11:48 47.36428 8.48488 36896 ft 407 kts 177°
2026-05-05 11:49 47.30805 8.49307 36911 ft 407 kts 177°
2026-05-05 11:49 47.25167 8.50121 36901 ft 406 kts 177°
2026-05-05 11:50 47.19577 8.50935 36898 ft 406 kts 177°
2026-05-05 11:50 47.13984 8.51759 36897 ft 406 kts 177°
2026-05-05 11:51 47.08305 8.52582 36899 ft 406 kts 177°
2026-05-05 11:51 47.02702 8.53387 36888 ft 406 kts 178°
2026-05-05 11:52 46.97061 8.54194 36901 ft 406 kts 178°
2026-05-05 11:52 46.91420 8.55019 36918 ft 407 kts 178°
2026-05-05 11:53 46.85827 8.55828 36907 ft 406 kts 178°
2026-05-05 11:53 46.80197 8.56627 36929 ft 406 kts 178°
2026-05-05 11:54 46.74560 8.57431 36910 ft 406 kts 178°
2026-05-05 11:54 46.68969 8.58237 36927 ft 405 kts 178°
2026-05-05 11:55 46.63338 8.59042 36947 ft 407 kts 179°
2026-05-05 11:55 46.57692 8.59845 36979 ft 407 kts 178°
2026-05-05 11:56 46.52090 8.60640 36985 ft 407 kts 179°
2026-05-05 11:56 46.46453 8.61427 36995 ft 406 kts 178°
2026-05-05 11:57 46.41766 8.62088 37001 ft 407 kts 178°
2026-05-05 11:57 46.36135 8.62889 37018 ft 407 kts 179°
2026-05-05 11:58 46.30496 8.63684 37030 ft 407 kts 178°
2026-05-05 11:58 46.24866 8.64473 37031 ft 406 kts 178°
2026-05-05 11:59 46.19234 8.65268 37024 ft 406 kts 179°
2026-05-05 11:59 46.13633 8.66052 37025 ft 406 kts 179°
2026-05-05 12:00 46.08000 8.66814 37018 ft 405 kts 180°
2026-05-05 12:00 46.02369 8.67449 37022 ft 406 kts 180°
2026-05-05 12:01 45.96781 8.68047 37029 ft 406 kts 180°
2026-05-05 12:01 45.91132 8.68671 37035 ft 406 kts 180°
2026-05-05 12:02 45.85504 8.69302 37007 ft 406 kts 181°
2026-05-05 12:02 45.79873 8.69935 37001 ft 406 kts 180°
2026-05-05 12:03 45.74224 8.70572 37010 ft 406 kts 180°
2026-05-05 12:03 45.68617 8.71206 36995 ft 406 kts 180°
2026-05-05 12:04 45.62973 8.71835 37001 ft 406 kts 181°
2026-05-05 12:04 45.57360 8.72459 37007 ft 406 kts 180°
2026-05-05 12:05 45.51709 8.73091 37036 ft 406 kts 180°
2026-05-05 12:05 45.46067 8.73715 37038 ft 406 kts 181°
2026-05-05 12:06 45.40464 8.74333 37058 ft 405 kts 181°
2026-05-05 12:06 45.34825 8.74957 37060 ft 405 kts 181°
2026-05-05 12:07 45.29229 8.75572 37062 ft 405 kts 181°
2026-05-05 12:07 45.23692 8.76183 37049 ft 405 kts 181°
2026-05-05 12:08 45.18022 8.76815 37006 ft 405 kts 181°
2026-05-05 12:08 45.12404 8.77422 37010 ft 405 kts 181°
2026-05-05 12:09 45.06822 8.78030 37014 ft 404 kts 181°
2026-05-05 12:09 45.01209 8.78642 37017 ft 404 kts 181°
2026-05-05 12:10 44.95605 8.79258 37008 ft 404 kts 181°
2026-05-05 12:10 44.89986 8.79870 36973 ft 404 kts 181°
2026-05-05 12:11 44.84397 8.80473 36969 ft 405 kts 181°
2026-05-05 12:11 44.78807 8.80534 36973 ft 397 kts 194°
2026-05-05 12:12 44.73680 8.78073 36967 ft 387 kts 212°
2026-05-05 12:12 44.68751 8.75005 36962 ft 394 kts 196°
2026-05-05 12:13 44.63232 8.74406 36963 ft 400 kts 187°
2026-05-05 12:13 44.57680 8.74184 36965 ft 401 kts 187°
2026-05-05 12:14 44.52084 8.73940 36967 ft 401 kts 187°
2026-05-05 12:14 44.46500 8.73691 36969 ft 402 kts 187°
2026-05-05 12:15 44.40942 8.73449 36969 ft 401 kts 187°
2026-05-05 12:15 44.35341 8.73206 36973 ft 401 kts 187°
2026-05-05 12:16 44.29752 8.72968 36976 ft 401 kts 187°
2026-05-05 12:16 44.24198 8.72729 36977 ft 401 kts 187°
2026-05-05 12:17 44.18597 8.72985 36985 ft 409 kts 175°
2026-05-05 12:17 44.13028 8.74614 36985 ft 410 kts 174°
2026-05-05 12:18 44.07433 8.76243 36969 ft 410 kts 174°
2026-05-05 12:18 44.01830 8.77851 36976 ft 410 kts 174°
2026-05-05 12:19 43.96264 8.79454 36977 ft 410 kts 174°
2026-05-05 12:19 43.91046 8.80960 36985 ft 410 kts 174°
2026-05-05 12:20 43.85455 8.82560 36954 ft 410 kts 174°
2026-05-05 12:20 43.79892 8.84149 36960 ft 411 kts 174°
2026-05-05 12:21 43.74283 8.85753 36966 ft 411 kts 174°
2026-05-05 12:21 43.68666 8.87363 36969 ft 411 kts 174°
2026-05-05 12:22 43.63091 8.88955 36959 ft 412 kts 175°
2026-05-05 12:22 43.57474 8.90556 36965 ft 412 kts 175°
2026-05-05 12:23 43.51849 8.92149 36973 ft 412 kts 175°
2026-05-05 12:23 43.46214 8.93743 36957 ft 412 kts 175°
2026-05-05 12:24 43.40596 8.95317 36964 ft 411 kts 178°
2026-05-05 12:24 43.35023 8.95408 36969 ft 399 kts 191°
2026-05-05 12:25 43.29475 8.94745 36972 ft 400 kts 191°
2026-05-05 12:25 43.23922 8.94092 36957 ft 400 kts 191°
2026-05-05 12:26 43.18397 8.93459 36966 ft 400 kts 191°
2026-05-05 12:26 43.12844 8.92828 36975 ft 400 kts 191°
2026-05-05 12:27 43.07280 8.92187 36972 ft 400 kts 192°
2026-05-05 12:27 43.01760 8.91548 36974 ft 400 kts 192°
2026-05-05 12:28 42.96192 8.90904 36970 ft 400 kts 192°
2026-05-05 12:28 42.90640 8.90267 36968 ft 401 kts 191°
2026-05-05 12:29 42.85109 8.89636 36940 ft 401 kts 192°
2026-05-05 12:29 42.79542 8.89000 36947 ft 401 kts 192°
2026-05-05 12:30 42.73972 8.88359 36955 ft 401 kts 192°
2026-05-05 12:30 42.68407 8.87722 36964 ft 401 kts 192°
2026-05-05 12:31 42.62875 8.87090 36957 ft 401 kts 192°
2026-05-05 12:31 42.57296 8.86456 36965 ft 401 kts 192°
2026-05-05 12:32 42.51750 8.85836 36968 ft 401 kts 192°
2026-05-05 12:32 42.46207 8.85215 36973 ft 401 kts 192°
2026-05-05 12:33 42.40708 8.84593 36976 ft 402 kts 192°
2026-05-05 12:33 42.35236 8.83976 36968 ft 400 kts 192°
2026-05-05 12:34 42.29664 8.83336 36975 ft 401 kts 192°
2026-05-05 12:34 42.24112 8.82707 36966 ft 401 kts 192°
2026-05-05 12:35 42.18539 8.82085 36983 ft 401 kts 192°
2026-05-05 12:35 42.15750 8.81775 36879 ft 402 kts 192°
2026-05-05 12:35 42.12966 8.81467 36427 ft 399 kts 193°
2026-05-05 12:36 42.10203 8.81161 35971 ft 395 kts 193°
2026-05-05 12:36 42.07508 8.80861 35510 ft 392 kts 193°
2026-05-05 12:36 42.04799 8.80560 35035 ft 389 kts 193°
2026-05-05 12:36 42.02112 8.80263 34569 ft 385 kts 193°
2026-05-05 12:37 41.99441 8.79966 34105 ft 382 kts 194°
2026-05-05 12:37 41.96798 8.79668 33586 ft 379 kts 193°
2026-05-05 12:37 41.94179 8.79376 33139 ft 374 kts 194°
2026-05-05 12:37 41.91597 8.79090 32690 ft 370 kts 193°
2026-05-05 12:38 41.89075 8.78812 32250 ft 366 kts 193°
2026-05-05 12:38 41.86540 8.78532 31810 ft 363 kts 193°
2026-05-05 12:38 41.84030 8.78253 31378 ft 359 kts 193°
2026-05-05 12:38 41.81540 8.77976 30953 ft 357 kts 193°
2026-05-05 12:39 41.79093 8.77702 30492 ft 356 kts 192°
2026-05-05 12:39 41.76611 8.77520 30020 ft 360 kts 186°
2026-05-05 12:39 41.74102 8.77721 29511 ft 359 kts 184°
2026-05-05 12:39 41.71628 8.77939 29065 ft 356 kts 184°
2026-05-05 12:40 41.69167 8.78155 28622 ft 352 kts 184°
2026-05-05 12:40 41.66734 8.78369 28184 ft 349 kts 184°
2026-05-05 12:40 41.64324 8.78581 27730 ft 345 kts 184°
2026-05-05 12:40 41.61934 8.78788 27303 ft 342 kts 184°
2026-05-05 12:41 41.59560 8.78990 26863 ft 340 kts 183°
2026-05-05 12:41 41.57222 8.79186 26409 ft 339 kts 183°
2026-05-05 12:41 41.54857 8.79388 25944 ft 339 kts 183°
2026-05-05 12:41 41.52506 8.79592 25466 ft 339 kts 182°
2026-05-05 12:42 41.50145 8.79797 24983 ft 340 kts 182°
2026-05-05 12:42 41.47806 8.79998 24478 ft 342 kts 182°
2026-05-05 12:42 41.45420 8.80199 23979 ft 345 kts 181°
2026-05-05 12:42 41.43014 8.80400 23438 ft 348 kts 181°
2026-05-05 12:43 41.40592 8.80603 22884 ft 349 kts 181°
2026-05-05 12:43 41.38169 8.80811 22379 ft 348 kts 181°
2026-05-05 12:43 41.35757 8.81026 21882 ft 347 kts 179°
2026-05-05 12:43 41.33388 8.81724 21385 ft 353 kts 163°
2026-05-05 12:44 41.31207 8.83292 20880 ft 360 kts 148°
2026-05-05 12:44 41.29216 8.85248 20388 ft 360 kts 148°
2026-05-05 12:44 41.27206 8.87226 20046 ft 355 kts 148°
2026-05-05 12:44 41.25254 8.89144 19982 ft 344 kts 148°
2026-05-05 12:45 41.23327 8.91026 19994 ft 341 kts 148°
2026-05-05 12:45 41.22058 8.92257 19995 ft 341 kts 148°
2026-05-05 12:45 41.19515 8.94718 19987 ft 340 kts 148°
2026-05-05 12:45 41.17601 8.96572 19996 ft 340 kts 148°
2026-05-05 12:46 41.16308 8.97825 20010 ft 340 kts 148°
2026-05-05 12:46 41.14417 8.99656 19995 ft 340 kts 148°
2026-05-05 12:46 41.12506 9.01511 20002 ft 340 kts 148°
2026-05-05 12:46 41.10594 9.03347 20002 ft 339 kts 149°
2026-05-05 12:47 41.08589 9.04977 19800 ft 335 kts 161°
2026-05-05 12:47 41.06332 9.05706 19019 ft 335 kts 182°
2026-05-05 12:47 41.04079 9.05375 18279 ft 328 kts 196°
2026-05-05 12:47 41.01855 9.04671 17356 ft 327 kts 196°
2026-05-05 12:48 40.99646 9.03967 16507 ft 324 kts 196°
2026-05-05 12:48 40.97463 9.03276 15726 ft 321 kts 195°
2026-05-05 12:48 40.95291 9.02595 14970 ft 318 kts 195°
2026-05-05 12:48 40.93150 9.01928 14233 ft 314 kts 195°
2026-05-05 12:49 40.91065 9.01281 13523 ft 309 kts 195°
2026-05-05 12:49 40.89017 9.00646 13167 ft 294 kts 195°
2026-05-05 12:49 40.87050 9.00035 12989 ft 287 kts 196°
2026-05-05 12:49 40.85101 8.99426 12997 ft 288 kts 196°
2026-05-05 12:50 40.83145 8.98816 13004 ft 288 kts 196°
2026-05-05 12:50 40.81213 8.98216 12999 ft 288 kts 196°
2026-05-05 12:50 40.79282 8.97616 13001 ft 279 kts 195°
2026-05-05 12:50 40.77437 8.97047 12989 ft 266 kts 196°
2026-05-05 12:51 40.75643 8.96687 12995 ft 259 kts 182°
2026-05-05 12:51 40.73866 8.97122 12995 ft 263 kts 162°
2026-05-05 12:51 40.72269 8.98356 12997 ft 268 kts 149°
2026-05-05 12:51 40.70748 8.99780 12792 ft 270 kts 149°
2026-05-05 12:52 40.69186 9.01234 12040 ft 278 kts 149°
2026-05-05 12:52 40.67591 9.02723 11296 ft 284 kts 147°
2026-05-05 12:52 40.66301 9.04728 10550 ft 296 kts 116°
2026-05-05 12:52 40.65972 9.07376 9794 ft 306 kts 84°
2026-05-05 12:53 40.66687 9.10025 8929 ft 310 kts 59°
2026-05-05 12:53 40.67962 9.12336 8085 ft 311 kts 49°
2026-05-05 12:53 40.69395 9.14480 7265 ft 311 kts 47°
2026-05-05 12:53 40.70827 9.16621 6466 ft 311 kts 49°
2026-05-05 12:54 40.73428 9.20972 5332 ft 292 kts 53°
2026-05-05 12:54 40.74658 9.23030 4946 ft 278 kts 50°
2026-05-05 12:54 40.75780 9.24970 4885 ft 254 kts 54°
2026-05-05 12:55 40.76768 9.26834 4808 ft 241 kts 54°
2026-05-05 12:55 40.77685 9.28584 4585 ft 230 kts 54°
2026-05-05 12:55 40.78576 9.30277 4292 ft 219 kts 54°
2026-05-05 12:55 40.79438 9.31910 3938 ft 215 kts 54°
2026-05-05 12:56 40.80286 9.33521 3609 ft 212 kts 54°
2026-05-05 12:56 40.81114 9.35094 3302 ft 207 kts 53°
2026-05-05 12:56 40.81925 9.36635 2988 ft 203 kts 53°
2026-05-05 12:56 40.82723 9.38151 2681 ft 200 kts 53°
2026-05-05 12:57 40.83514 9.39655 2385 ft 198 kts 54°
2026-05-05 12:57 40.84280 9.41111 2081 ft 191 kts 54°
2026-05-05 12:57 40.85010 9.42500 1812 ft 177 kts 55°
2026-05-05 12:57 40.85682 9.43781 1542 ft 161 kts 54°
2026-05-05 12:58 40.86274 9.44909 1308 ft 156 kts 56°
2026-05-05 12:58 40.86909 9.46117 1055 ft 147 kts 56°
2026-05-05 12:58 40.87466 9.47179 827 ft 137 kts 57°
2026-05-05 12:58 40.87997 9.48191 646 ft 135 kts 59°
2026-05-05 12:59 40.88531 9.49208 395 ft 132 kts 57°
2026-05-05 12:59 40.89048 9.50208 211 ft 133 kts 58°
2026-05-05 12:59 40.89562 9.51180 50 ft 126 kts 58°
2026-05-05 13:00 40.90260 9.52531 34 ft 35 kts 53°
2026-05-05 13:00 40.90375 9.52684 34 ft 17 kts
2026-05-05 13:01 40.90401 9.52396 34 ft 12 kts 234°
2026-05-05 13:01 40.90357 9.52311 34 ft 11 kts 235°
2026-05-05 13:01 40.90316 9.52233 34 ft 10 kts 236°
2026-05-05 13:01 40.90278 9.52160 33 ft 9 kts 235°
2026-05-05 13:02 40.90242 9.52091 34 ft 9 kts 235°
2026-05-05 13:02 40.90208 9.52027 34 ft 8 kts 235°
2026-05-05 13:02 40.90177 9.51968 34 ft 8 kts 235°
2026-05-05 13:02 40.90146 9.51910 34 ft 10 kts 235°
2026-05-05 13:03 40.90108 9.51835 34 ft 10 kts 236°
2026-05-05 13:03 40.90071 9.51764 34 ft 9 kts 236°
2026-05-05 13:03 40.90016 9.51658 34 ft 19 kts 236°
2026-05-05 13:03 40.89978 9.51540 34 ft 13 kts 293°
2026-05-05 13:04 40.90048 9.51479 34 ft 11 kts 328°
2026-05-05 13:04 40.90098 9.51524 34 ft 10 kts 53°
2026-05-05 13:04 40.90138 9.51575 34 ft 2 kts 348°
2026-05-05 13:04 40.90153 9.51554 34 ft 4 kts 317°
2026-05-05 13:05 40.90169 9.51538 34 ft 3 kts 323°
2026-05-05 13:05 40.90177 9.51531 34 ft 1 kts 326°
2026-05-05 13:05 40.90180 9.51528 34 ft 0 kts 326°